period_start,C,m1,H,J0,J1,J2,J3,J4,J5,JA,JB,JC,JD,JJ,JK,JN,#
2014-08-29 00:00:44,0.03,0.24,0.00,26.66,31.37,33.66,9.46,38.03,1010.88,2020.80,3329.00,3232.92,3500.00,500.55,488.29,21.88,0000 0000 0000 0000 000000
2014-08-29 00:05:46,0.00,0.24,0.00,26.65,31.36,33.61,9.35,37.74,1010.87,2020.95,3329.04,3232.98,3500.06,499.63,487.48,21.92,0000 0000 0000 0000 000000
2014-08-29 00:10:47,-0.02,0.24,0.00,26.62,31.33,33.62,9.41,37.92,1011.03,2020.97,3329.54,3232.99,3500.62,499.81,487.77,21.96,0000 0000 0000 0000 000000
2014-08-29 00:15:48,-0.01,0.24,0.00,26.59,31.31,33.58,9.46,38.03,1011.02,2020.99,3329.94,3233.04,3500.93,500.27,488.36,22.01,0000 0000 0000 0000 000000
2014-08-29 00:20:49,-0.00,0.24,0.00,26.56,31.29,33.56,9.42,37.97,1010.86,2020.99,3329.99,3233.22,3500.99,500.65,488.60,22.05,0000 0000 0000 0000 000000
2014-08-29 00:25:50,-0.01,0.24,0.00,26.54,31.27,33.55,9.37,37.92,1010.77,2020.99,3329.99,3233.65,3500.99,499.72,487.88,22.09,0000 0000 0000 0000 000000
2014-08-29 00:30:51,-0.00,0.24,0.00,26.58,31.25,33.52,9.40,38.00,1010.77,2021.00,3330.01,3233.95,3501.00,500.35,488.22,22.13,0000 0000 0000 0000 000000
2014-08-29 00:35:51,-0.00,0.24,0.00,26.58,31.23,33.51,9.45,37.93,1010.77,2021.01,3330.08,3233.97,3501.11,499.96,487.91,22.17,0000 0000 0000 0000 000000
2014-08-29 00:40:52,-0.01,0.24,0.00,26.56,31.21,33.48,9.37,38.06,1010.77,2021.08,3330.43,3233.99,3501.77,499.71,487.82,22.21,0000 0000 0000 0000 000000
2014-08-29 00:45:54,0.02,0.24,0.00,26.54,31.19,33.45,9.32,37.89,1010.97,2021.31,3330.78,3234.02,3501.92,499.50,487.61,22.26,0000 0000 0000 0000 000000
2014-08-29 00:50:55,0.03,0.24,0.00,26.49,31.17,33.47,9.39,38.00,1010.91,2021.70,3330.93,3234.14,3501.98,500.15,488.38,22.30,0000 0000 0000 0000 000000
2014-08-29 00:55:55,0.00,0.24,0.00,26.49,31.15,33.44,9.39,37.89,1010.78,2021.84,3330.98,3234.36,3501.99,500.11,488.17,22.34,0000 0000 0000 0000 000000
2014-08-29 01:00:56,-0.00,0.24,0.00,26.47,31.13,33.41,9.40,38.05,1010.77,2021.94,3330.99,3234.76,3502.00,499.76,487.88,22.38,0000 0000 0000 0000 000000
2014-08-29 01:05:58,-0.00,0.24,0.00,26.45,31.12,33.37,9.44,38.00,1010.77,2021.96,3331.00,3234.95,3502.03,499.80,488.11,22.42,0000 0000 0000 0000 000000
2014-08-29 01:10:59,-0.00,0.24,0.00,26.44,31.10,33.37,9.37,38.09,1010.76,2021.99,3331.05,3234.98,3502.26,499.92,488.01,22.47,0000 0000 0000 0000 000000
2014-08-29 01:16:00,-0.00,0.24,0.00,26.44,31.08,33.32,9.36,38.17,1010.75,2021.99,3331.16,3234.99,3502.50,500.00,488.07,22.51,0000 0000 0000 0000 000000
2014-08-29 01:21:01,-0.01,0.24,0.00,26.45,31.06,33.30,9.34,38.08,1010.61,2021.99,3331.37,3235.00,3502.85,499.49,487.63,22.55,0000 0000 0000 0000 000000
2014-08-29 01:26:02,-0.01,0.24,0.00,26.43,31.05,33.26,9.42,38.05,1010.43,2021.99,3331.71,3235.02,3502.96,499.97,488.10,22.59,0000 0000 0000 0000 000000
2014-08-29 01:31:03,-0.00,0.24,0.00,26.42,31.03,33.26,9.38,37.97,1010.44,2021.99,3331.88,3235.08,3502.99,499.94,488.04,22.63,0000 0000 0000 0000 000000
2014-08-29 01:36:04,0.00,0.24,0.00,26.42,31.02,33.26,9.37,37.98,1010.55,2021.99,3331.91,3235.14,3502.99,500.58,488.79,22.67,0000 0000 0000 0000 000000
2014-08-29 01:41:06,-0.01,0.24,0.00,26.40,31.00,33.24,9.41,37.93,1010.75,2022.01,3331.97,3235.41,3502.99,499.93,488.22,22.72,0000 0000 0000 0000 000000
2014-08-29 01:46:07,-0.01,0.24,0.00,26.41,30.99,33.23,9.36,37.99,1010.76,2022.03,3331.99,3235.88,3503.02,499.79,488.06,22.76,0000 0000 0000 0000 000000
2014-08-29 01:51:08,-0.00,0.24,0.00,26.43,30.97,33.20,9.41,38.05,1010.77,2022.02,3331.99,3235.96,3503.04,500.39,488.46,22.80,0000 0000 0000 0000 000000
2014-08-29 01:56:09,0.02,0.24,0.00,26.42,30.96,33.21,9.43,37.92,1011.09,2022.19,3332.01,3235.98,3503.21,499.70,488.12,22.84,0000 0000 0000 0000 000000
2014-08-29 02:01:10,-0.01,0.24,0.00,26.41,30.95,33.18,9.42,37.92,1011.25,2022.26,3332.02,3235.99,3503.56,500.57,489.00,22.88,0000 0000 0000 0000 000000
2014-08-29 02:06:12,-0.01,0.24,0.00,26.44,30.93,33.17,9.39,37.90,1011.26,2022.25,3332.05,3235.99,3503.59,499.92,488.42,22.93,0000 0000 0000 0000 000000
2014-08-29 02:11:13,0.01,0.24,0.00,26.45,30.92,33.17,9.37,37.74,1011.25,2022.34,3332.13,3235.99,3503.68,500.05,488.43,22.97,0000 0000 0000 0000 000000
2014-08-29 02:16:14,0.02,0.24,0.00,26.46,30.92,33.15,9.35,37.84,1011.26,2022.51,3332.31,3235.99,3503.91,499.69,488.15,23.01,0000 0000 0000 0000 000000
2014-08-29 02:21:15,0.03,0.24,0.00,26.47,30.90,33.14,9.46,37.85,1011.26,2022.78,3332.54,3236.01,3503.98,499.95,488.43,23.05,0000 0000 0000 0000 000000
2014-08-29 02:26:16,-0.02,0.24,0.00,26.48,30.90,33.15,9.42,37.86,1011.26,2022.81,3332.76,3236.02,3503.99,500.23,488.48,23.09,0000 0000 0000 0000 000000
2014-08-29 02:31:17,0.01,0.24,0.00,26.49,30.90,33.14,9.37,37.90,1011.26,2022.88,3332.83,3236.05,3503.99,500.32,488.65,23.14,0000 0000 0000 0000 000000
2014-08-29 02:36:18,0.01,0.24,0.00,26.50,30.89,33.15,9.44,37.86,1011.25,2022.95,3332.76,3236.08,3503.99,500.52,488.76,23.18,0000 0000 0000 0000 000000
2014-08-29 02:41:19,-0.00,0.24,0.00,26.51,30.88,33.14,9.40,37.80,1011.25,2022.94,3332.69,3236.06,3503.98,500.00,488.35,23.22,0000 0000 0000 0000 000000
2014-08-29 02:46:20,-0.00,0.24,0.00,26.51,30.87,33.14,9.39,37.68,1011.25,2022.96,3332.80,3236.09,3503.99,499.77,488.16,23.26,0000 0000 0000 0000 000000
2014-08-29 02:51:21,-0.00,0.24,0.00,26.52,30.87,33.13,9.40,38.00,1011.26,2022.95,3332.81,3236.07,3503.99,500.21,488.56,23.30,0000 0000 0000 0000 000000
2014-08-29 02:56:23,0.00,0.24,0.00,26.53,30.87,33.13,9.35,37.90,1011.27,2022.98,3332.65,3236.11,3503.99,499.49,487.72,23.34,0000 0000 0000 0000 000000
2014-08-29 03:01:24,-0.01,0.24,0.00,26.53,30.87,33.13,9.39,37.95,1011.32,2022.97,3332.77,3236.11,3503.99,500.02,488.09,23.39,0000 0000 0000 0000 000000
2014-08-29 03:06:25,0.01,0.24,0.00,26.54,30.87,33.13,9.37,37.89,1011.72,2022.98,3332.57,3236.06,3503.99,500.09,488.55,23.43,0000 0000 0000 0000 000000
2014-08-29 03:11:26,-0.00,0.24,0.00,26.55,30.87,33.14,9.44,37.97,1011.73,2022.99,3332.75,3236.12,3503.99,499.94,488.34,23.47,0000 0000 0000 0000 000000
2014-08-29 03:16:27,0.01,0.24,0.00,26.54,30.87,33.14,9.46,38.06,1011.73,2022.98,3332.42,3236.07,3503.98,500.37,488.87,23.51,0000 0000 0000 0000 000000
2014-08-29 03:21:28,-0.00,0.24,0.00,26.53,30.87,33.14,9.42,38.00,1011.73,2022.96,3332.40,3236.02,3503.98,499.84,488.27,23.55,0000 0000 0000 0000 000000
2014-08-29 03:26:29,0.00,0.24,0.00,26.55,30.87,33.15,9.45,38.03,1011.74,2022.93,3332.17,3236.01,3503.94,500.16,488.59,23.60,0000 0000 0000 0000 000000
2014-08-29 03:31:30,-0.00,0.24,0.00,26.55,30.87,33.16,9.40,38.02,1011.75,2022.93,3332.15,3236.01,3503.96,499.95,488.35,23.64,0000 0000 0000 0000 000000
2014-08-29 03:36:31,0.00,0.24,0.00,26.54,30.87,33.16,9.39,38.02,1011.79,2022.94,3332.16,3236.02,3503.96,500.01,488.58,23.68,0000 0000 0000 0000 000000
2014-08-29 03:41:32,0.00,0.24,0.00,26.55,30.87,33.16,9.50,38.12,1011.79,2022.95,3332.20,3236.01,3503.95,500.37,489.00,23.72,0000 0000 0000 0000 000000
2014-08-29 03:46:34,-0.00,0.24,0.00,26.54,30.87,33.16,9.42,37.98,1011.74,2022.96,3332.33,3236.05,3503.96,499.87,488.28,23.76,0000 0000 0000 0000 000000
2014-08-29 03:51:35,-0.01,0.24,0.00,26.53,30.87,33.16,9.46,37.93,1011.73,2022.93,3332.23,3236.01,3503.95,500.00,488.44,23.80,0000 0000 0000 0000 000000
2014-08-29 03:56:36,0.00,0.24,0.00,26.55,30.87,33.17,9.43,38.03,1011.75,2022.93,3332.34,3236.04,3503.93,499.84,488.26,23.85,0000 0000 0000 0000 000000
2014-08-29 04:01:37,0.00,0.24,0.00,26.53,30.87,33.16,9.38,37.88,1011.77,2022.95,3332.08,3236.02,3503.91,500.29,488.82,23.89,0000 0000 0000 0000 000000
2014-08-29 04:06:38,0.00,0.24,0.00,26.52,30.87,33.17,9.38,37.83,1011.75,2022.96,3332.05,3236.02,3503.85,500.14,488.76,23.93,0000 0000 0000 0000 000000
2014-08-29 04:11:39,-0.00,0.24,0.00,26.50,30.87,33.16,9.42,38.08,1011.72,2022.95,3332.07,3236.01,3503.88,500.17,488.82,23.97,0000 0000 0000 0000 000000
2014-08-29 04:16:40,0.00,0.24,0.00,26.50,30.87,33.16,9.43,38.16,1011.63,2022.96,3332.05,3236.01,3503.90,500.41,488.77,24.01,0000 0000 0000 0000 000000
2014-08-29 04:21:41,0.00,0.24,0.00,26.49,30.87,33.15,9.43,37.92,1011.69,2022.96,3332.03,3236.01,3503.85,499.89,488.24,24.06,0000 0000 0000 0000 000000
2014-08-29 04:26:42,0.01,0.24,0.00,26.47,30.87,33.16,9.45,38.04,1011.58,2022.95,3332.01,3236.00,3503.63,500.22,488.73,24.10,0000 0000 0000 0000 000000
2014-08-29 04:31:43,-0.00,0.24,0.00,26.47,30.87,33.16,9.46,37.98,1011.56,2022.95,3332.01,3236.00,3503.69,500.68,489.09,24.14,0000 0000 0000 0000 000000
2014-08-29 04:36:44,0.00,0.24,0.00,26.47,30.87,33.16,9.38,38.02,1011.31,2022.95,3332.00,3236.00,3503.59,499.89,488.25,24.18,0000 0000 0000 0000 000000
2014-08-29 04:41:45,0.00,0.24,0.00,26.44,30.87,33.13,9.38,38.00,1011.37,2022.97,3332.01,3236.02,3503.72,500.07,488.58,24.22,0000 0000 0000 0000 000000
2014-08-29 04:46:46,0.00,0.24,0.00,26.41,30.86,33.14,9.37,37.98,1011.41,2022.99,3332.00,3236.00,3503.64,499.78,488.39,24.26,0000 0000 0000 0000 000000
2014-08-29 04:51:48,-0.00,0.24,0.00,26.41,30.85,33.14,9.41,38.13,1011.44,2022.97,3332.00,3236.00,3503.55,500.18,488.73,24.31,0000 0000 0000 0000 000000
2014-08-29 04:56:49,-0.00,0.24,0.00,26.40,30.85,33.13,9.42,37.99,1011.44,2022.97,3332.00,3236.00,3503.43,500.19,488.75,24.35,0000 0000 0000 0000 000000
2014-08-29 05:01:50,-0.00,0.24,0.00,26.39,30.85,33.12,9.41,38.02,1011.58,2022.98,3332.01,3236.00,3503.61,500.15,488.74,24.39,0000 0000 0000 0000 000000
2014-08-29 05:06:51,-0.00,0.24,0.00,26.39,30.84,33.11,9.41,37.87,1011.68,2022.99,3332.03,3236.03,3503.94,500.15,489.16,24.43,0000 0000 0000 0000 000000
2014-08-29 05:11:52,0.00,0.24,0.00,26.41,30.83,33.11,9.46,37.98,1011.64,2022.99,3332.05,3236.04,3503.98,500.06,488.71,24.47,0000 0000 0000 0000 000000
2014-08-29 05:16:53,0.00,0.24,0.00,26.41,30.82,33.10,9.46,38.14,1011.65,2022.99,3332.05,3236.05,3503.96,500.19,488.69,24.52,0000 0000 0000 0000 000000
2014-08-29 05:21:54,0.00,0.24,0.00,26.42,30.82,33.10,9.42,38.19,1011.45,2022.99,3332.07,3236.06,3503.98,499.73,488.34,24.56,0000 0000 0000 0000 000000
2014-08-29 05:26:55,0.00,0.24,0.00,26.39,30.82,33.10,9.35,38.09,1011.38,2022.99,3332.15,3236.07,3503.99,499.85,488.48,24.60,0000 0000 0000 0000 000000
2014-08-29 05:31:56,0.00,0.24,0.00,26.38,30.82,33.09,9.36,38.21,1011.32,2022.99,3332.09,3236.12,3503.97,499.58,488.23,24.64,0000 0000 0000 0000 000000
2014-08-29 05:36:58,0.00,0.24,0.00,26.38,30.81,33.08,9.40,37.92,1011.37,2022.99,3332.16,3236.14,3503.98,500.00,488.58,24.68,0000 0000 0000 0000 000000
2014-08-29 05:41:58,0.00,0.24,0.00,26.38,30.80,33.08,9.48,38.14,1011.41,2022.99,3332.29,3236.13,3503.97,500.36,488.92,24.72,0000 0000 0000 0000 000000
2014-08-29 05:46:59,-0.00,0.24,0.00,26.37,30.80,33.08,9.43,37.98,1011.66,2022.99,3332.33,3236.15,3503.96,500.32,489.05,24.77,0000 0000 0000 0000 000000
2014-08-29 05:52:00,-0.02,0.24,0.00,26.34,30.80,33.06,9.40,38.12,1011.71,2023.01,3332.42,3236.52,3503.99,499.86,488.59,24.81,0000 0000 0000 0000 000000
2014-08-29 05:57:01,0.01,0.24,0.00,26.34,30.80,33.07,9.49,37.94,1011.73,2023.01,3332.36,3236.52,3503.99,500.29,489.16,24.85,0000 0000 0000 0000 000000
2014-08-29 06:02:02,-0.01,0.24,0.00,26.33,30.78,33.06,9.45,37.98,1011.73,2023.03,3332.44,3236.71,3503.99,500.21,489.02,24.89,0000 0000 0000 0000 000000
2014-08-29 06:07:03,-0.00,0.24,0.00,26.33,30.77,33.05,9.37,37.88,1011.73,2023.04,3332.46,3236.82,3503.99,500.28,489.22,24.93,0000 0000 0000 0000 000000
2014-08-29 06:12:04,0.01,0.24,0.00,26.29,30.77,33.04,9.30,37.89,1011.77,2023.08,3332.45,3236.91,3503.99,499.42,488.50,24.98,0000 0000 0000 0000 000000
2014-08-29 06:17:06,0.00,0.24,0.00,26.29,30.76,33.04,9.45,37.94,1011.86,2023.13,3332.38,3236.93,3503.99,500.22,489.18,25.02,0000 0000 0000 0000 000000
2014-08-29 06:22:06,0.00,0.24,0.00,26.28,30.75,33.03,9.32,37.81,1012.02,2023.16,3332.36,3236.91,3503.99,499.54,488.53,25.06,0000 0000 0000 0000 000000
2014-08-29 06:27:07,0.01,0.24,0.00,26.29,30.75,33.02,9.48,37.98,1011.80,2023.21,3332.16,3236.91,3503.99,500.22,489.17,25.10,0000 0000 0000 0000 000000
2014-08-29 06:32:08,0.00,0.24,0.00,26.28,30.75,33.01,9.38,38.04,1012.11,2023.24,3332.17,3236.91,3503.99,499.40,488.55,25.14,0000 0000 0000 0000 000000
2014-08-29 06:37:09,0.03,0.24,0.00,26.28,30.73,33.00,9.45,37.96,1012.19,2023.53,3332.33,3236.97,3504.01,500.05,489.21,25.19,0000 0000 0000 0000 000000
2014-08-29 06:42:10,0.03,0.25,0.00,26.27,30.72,33.00,9.47,38.05,1012.19,2023.82,3332.30,3236.98,3504.03,500.53,489.52,25.23,0000 0000 0000 0000 000000
2014-08-29 06:47:12,0.01,0.25,0.00,26.26,30.72,32.98,9.41,38.16,1012.22,2023.90,3332.29,3236.99,3504.04,500.01,489.13,25.27,0000 0000 0000 0000 000000
2014-08-29 06:52:13,0.00,0.25,0.00,26.24,30.70,32.96,9.31,37.98,1012.23,2023.93,3332.24,3236.99,3504.06,499.45,488.80,25.31,0000 0000 0000 0000 000000
2014-08-29 06:57:14,0.00,0.25,0.00,26.24,30.70,32.96,9.54,38.38,1012.24,2023.97,3332.20,3236.99,3504.07,500.51,489.86,25.35,0000 0000 0000 0000 000000
2014-08-29 07:02:16,-0.01,0.25,0.00,26.23,30.69,32.96,9.50,38.24,1012.23,2023.97,3332.39,3236.99,3504.16,500.48,489.44,25.39,0000 0000 0000 0000 000000
2014-08-29 07:07:17,-0.00,0.25,0.00,26.22,30.67,32.95,9.44,38.17,1012.26,2023.98,3332.60,3236.99,3504.33,500.20,489.48,25.44,0000 0000 0000 0000 000000
2014-08-29 07:12:18,-0.01,0.25,0.00,26.19,30.67,32.96,9.44,38.10,1012.24,2023.98,3332.78,3236.99,3504.44,500.10,489.47,25.48,0000 0000 0000 0000 000000
2014-08-29 07:17:19,-0.01,0.25,0.00,26.17,30.66,32.94,9.47,38.21,1012.22,2023.99,3332.89,3237.01,3504.86,500.21,489.39,25.52,0000 0000 0000 0000 000000
2014-08-29 07:22:20,0.00,0.25,0.00,26.17,30.65,32.92,9.34,38.29,1012.23,2023.99,3332.87,3237.02,3504.89,499.70,489.18,25.56,0000 0000 0000 0000 000000
2014-08-29 07:27:21,-0.00,0.25,0.00,26.17,30.65,32.93,9.40,38.14,1012.23,2023.99,3332.91,3237.07,3504.96,500.04,489.36,25.60,0000 0000 0000 0000 000000
2014-08-29 07:32:22,-0.00,0.25,0.00,26.14,30.62,32.91,9.48,38.38,1012.23,2023.99,3332.95,3237.10,3504.98,500.01,489.35,25.65,0000 0000 0000 0000 000000
2014-08-29 07:37:24,-0.01,0.25,0.00,26.12,30.62,32.90,9.45,38.27,1012.22,2024.01,3332.97,3237.42,3504.99,500.68,490.07,25.69,0000 0000 0000 0000 000000
2014-08-29 07:42:24,-0.00,0.24,0.00,26.11,30.61,32.88,9.34,38.23,1012.23,2024.02,3332.99,3237.72,3504.99,499.64,489.18,25.73,0000 0000 0000 0000 000000
2014-08-29 07:47:25,-0.00,0.24,0.00,26.10,30.60,32.89,9.52,38.23,1012.23,2024.03,3332.99,3237.87,3505.00,500.30,489.60,25.77,0000 0000 0000 0000 000000
2014-08-29 07:52:26,0.00,0.24,0.00,26.08,30.59,32.86,9.55,38.27,1012.23,2024.06,3332.99,3237.93,3505.00,500.31,489.92,25.81,0000 0000 0000 0000 000000
2014-08-29 07:57:27,0.00,0.24,0.00,26.07,30.57,32.85,9.35,38.00,1012.23,2024.13,3332.99,3237.97,3505.01,499.61,489.24,25.86,0000 0000 0000 0000 000000
2014-08-29 08:02:28,0.01,0.25,0.00,26.07,30.57,32.85,9.44,38.28,1012.24,2024.25,3332.99,3237.98,3505.03,500.31,489.71,25.90,0000 0000 0000 0000 000000
2014-08-29 08:07:30,0.05,0.25,0.00,26.08,30.55,32.82,9.44,38.23,1012.34,2024.65,3332.99,3237.99,3505.16,499.66,489.32,25.94,0000 0000 0000 0000 000000
2014-08-29 08:12:31,0.00,0.25,0.00,26.06,30.55,32.80,9.42,38.13,1012.34,2024.87,3332.99,3237.99,3505.43,500.46,490.03,25.98,0000 0000 0000 0000 000000
2014-08-29 08:17:32,0.00,0.25,0.00,26.04,30.54,32.81,9.39,38.03,1012.67,2024.90,3333.01,3237.99,3505.52,500.48,490.24,26.02,0000 0000 0000 0000 000000
2014-08-29 08:22:33,-0.00,0.25,0.00,26.02,30.52,32.80,9.46,38.15,1012.71,2024.95,3333.00,3237.99,3505.80,500.00,489.57,26.06,0000 0000 0000 0000 000000
2014-08-29 08:27:34,0.00,0.25,0.00,26.03,30.52,32.79,9.43,37.84,1012.72,2024.98,3333.00,3238.00,3505.80,500.17,489.95,26.11,0000 0000 0000 0000 000000
2014-08-29 08:32:35,0.00,0.25,0.00,26.01,30.50,32.78,9.45,38.01,1012.73,2024.99,3333.00,3238.02,3505.93,499.92,489.91,26.15,0000 0000 0000 0000 000000
2014-08-29 08:37:36,0.00,0.25,0.00,26.00,30.50,32.77,9.41,37.68,1012.73,2024.98,3333.01,3238.01,3505.94,499.99,490.00,26.19,0000 0000 0000 0000 000000
2014-08-29 08:42:37,-0.00,0.25,0.00,26.01,30.49,32.75,9.42,38.02,1012.86,2024.99,3333.05,3238.04,3505.96,500.06,490.02,26.23,0000 0000 0000 0000 000000
2014-08-29 08:47:38,-0.00,0.25,0.00,26.02,30.47,32.75,9.46,38.23,1013.00,2024.99,3333.08,3238.12,3505.97,499.93,489.84,26.27,0000 0000 0000 0000 000000
2014-08-29 08:52:39,0.00,0.25,0.00,26.02,30.47,32.75,9.41,38.30,1013.14,2024.99,3333.11,3238.12,3505.98,500.13,490.16,26.32,0000 0000 0000 0000 000000
2014-08-29 08:57:40,-0.00,0.25,0.00,26.02,30.46,32.73,9.46,38.13,1013.07,2024.99,3333.15,3238.20,3505.99,500.09,490.00,26.36,0000 0000 0000 0000 000000
2014-08-29 09:02:41,-0.01,0.25,0.00,26.00,30.45,32.73,9.44,38.10,1013.17,2024.99,3333.34,3238.43,3505.99,499.63,489.53,26.40,0000 0000 0000 0000 000000
2014-08-29 09:07:42,-0.01,0.25,0.00,26.00,30.45,32.73,9.50,38.13,1013.20,2024.99,3333.48,3238.50,3505.99,500.32,490.37,26.44,0000 0000 0000 0000 000000
2014-08-29 09:12:43,-0.01,0.25,0.00,26.00,30.45,32.72,9.38,37.98,1013.20,2024.99,3333.93,3238.85,3505.99,499.80,489.88,26.48,0000 0000 0000 0000 000000
2014-08-29 09:17:44,-0.00,0.25,0.00,25.98,30.42,32.70,9.42,38.02,1013.20,2024.99,3333.95,3238.94,3506.01,499.64,489.96,26.52,0000 0000 0000 0000 000000
2014-08-29 09:22:46,0.00,0.25,0.00,25.99,30.42,32.70,9.44,38.09,1013.20,2025.00,3333.98,3238.98,3506.03,499.57,489.71,26.57,0000 0000 0000 0000 000000
2014-08-29 09:27:46,0.00,0.25,0.00,25.96,30.42,32.70,9.44,37.95,1013.20,2025.01,3333.98,3238.99,3506.03,500.16,490.21,26.61,0000 0000 0000 0000 000000
2014-08-29 09:32:47,0.00,0.25,0.00,25.97,30.41,32.69,9.46,38.02,1013.20,2025.00,3333.98,3238.98,3506.02,499.75,489.87,26.65,0000 0000 0000 0000 000000
2014-08-29 09:37:48,0.00,0.25,0.00,25.96,30.40,32.70,9.41,37.93,1013.20,2025.00,3333.99,3238.99,3506.06,500.12,490.25,26.69,0000 0000 0000 0000 000000
2014-08-29 09:42:50,-0.00,0.25,0.00,25.94,30.40,32.68,9.43,38.06,1013.20,2025.00,3333.99,3238.99,3506.06,500.09,490.27,26.73,0000 0000 0000 0000 000000
2014-08-29 09:47:51,0.00,0.25,0.00,25.93,30.40,32.68,9.39,37.98,1013.20,2025.02,3333.99,3238.99,3506.24,500.02,490.15,26.78,0000 0000 0000 0000 000000
2014-08-29 09:52:52,-0.00,0.25,0.00,25.94,30.39,32.68,9.39,38.10,1013.21,2025.02,3334.00,3238.99,3506.27,499.68,489.86,26.82,0000 0000 0000 0000 000000
2014-08-29 09:57:53,-0.00,0.25,0.00,25.93,30.37,32.66,9.47,38.13,1013.22,2025.02,3334.00,3238.99,3506.32,500.19,490.23,26.86,0000 0000 0000 0000 000000
2014-08-29 10:02:54,-0.00,0.25,0.00,25.94,30.37,32.65,9.35,38.15,1013.26,2025.02,3334.00,3238.99,3506.55,499.41,489.65,26.90,0000 0000 0000 0000 000000
2014-08-29 10:07:55,0.00,0.25,0.00,25.93,30.37,32.65,9.41,38.07,1013.25,2025.01,3334.01,3238.99,3506.36,499.99,490.31,26.94,0000 0000 0000 0000 000000
2014-08-29 10:12:56,-0.00,0.25,0.00,25.90,30.36,32.65,9.45,38.01,1013.44,2025.02,3334.01,3238.99,3506.44,499.96,490.39,26.99,0000 0000 0000 0000 000000
2014-08-29 10:17:57,-0.00,0.25,0.00,25.89,30.35,32.67,9.51,38.03,1013.63,2025.02,3334.03,3238.99,3506.66,500.36,490.86,27.03,0000 0000 0000 0000 000000
2014-08-29 10:22:58,0.00,0.25,0.00,25.88,30.35,32.64,9.41,37.97,1013.62,2025.06,3334.03,3239.00,3506.83,499.65,490.35,27.07,0000 0000 0000 0000 000000
2014-08-29 10:27:59,-0.00,0.25,0.00,25.86,30.35,32.62,9.50,38.13,1013.66,2025.11,3334.10,3239.05,3506.95,499.98,490.65,27.11,0000 0000 0000 0000 000000
2014-08-29 10:33:01,0.00,0.25,0.00,25.83,30.32,32.61,9.46,38.21,1013.66,2025.11,3334.09,3239.06,3506.95,499.80,490.41,27.15,0000 0000 0000 0000 000000
2014-08-29 10:38:02,-0.01,0.25,0.00,25.81,30.32,32.62,9.49,38.16,1013.68,2025.10,3334.18,3239.09,3506.94,500.49,491.10,27.19,0000 0000 0000 0000 000000
2014-08-29 10:43:03,-0.01,0.25,0.00,25.78,30.31,32.60,9.42,38.04,1013.57,2025.17,3334.55,3239.26,3506.98,499.99,490.49,27.24,0000 0000 0000 0000 000000
2014-08-29 10:48:04,-0.00,0.25,0.00,25.76,30.30,32.60,9.38,37.98,1013.41,2025.12,3334.48,3239.27,3506.97,499.28,489.88,27.28,0000 0000 0000 0000 000000
2014-08-29 10:53:05,-0.00,0.24,0.00,25.76,30.29,32.57,9.46,38.12,1013.28,2025.13,3334.65,3239.37,3506.98,499.67,490.03,27.32,0000 0000 0000 0000 000000
2014-08-29 10:58:06,0.01,0.25,0.00,25.73,30.27,32.56,9.49,38.04,1013.21,2025.28,3334.91,3239.75,3506.99,500.20,490.59,27.36,0000 0000 0000 0000 000000
2014-08-29 11:03:07,-0.02,0.24,0.00,25.70,30.26,32.55,9.45,38.17,1013.17,2025.30,3334.96,3239.92,3506.99,500.09,490.43,27.40,0000 0000 0000 0000 000000
2014-08-29 11:08:09,0.03,0.25,0.00,25.70,30.25,32.54,9.47,38.22,1013.00,2025.49,3334.98,3239.97,3506.99,500.14,490.53,27.45,0000 0000 0000 0000 000000
2014-08-29 11:13:10,0.01,0.25,0.00,25.68,30.23,32.53,9.43,38.28,1013.08,2025.62,3334.99,3239.98,3506.99,499.80,490.29,27.49,0000 0000 0000 0000 000000
2014-08-29 11:18:10,0.01,0.25,0.00,25.65,30.22,32.51,9.43,38.10,1013.20,2025.83,3334.99,3239.98,3507.01,500.21,490.95,27.53,0000 0000 0000 0000 000000
2014-08-29 11:23:11,0.00,0.25,0.00,25.65,30.20,32.49,9.45,38.17,1013.25,2025.94,3334.99,3239.99,3507.07,499.88,490.57,27.57,0000 0000 0000 0000 000000
2014-08-29 11:28:12,-0.00,0.25,0.00,25.65,30.20,32.48,9.38,37.95,1013.60,2025.96,3334.99,3239.99,3507.24,499.89,490.85,27.61,0000 0000 0000 0000 000000
2014-08-29 11:33:13,-0.00,0.25,0.00,25.64,30.17,32.47,9.47,38.07,1013.66,2025.98,3334.99,3239.99,3507.51,499.67,490.53,27.66,0000 0000 0000 0000 000000
2014-08-29 11:38:14,-0.00,0.25,0.00,25.63,30.17,32.46,9.41,38.02,1013.63,2025.99,3334.99,3240.02,3507.77,500.07,491.02,27.70,0000 0000 0000 0000 000000
2014-08-29 11:43:15,-0.00,0.25,0.00,25.61,30.15,32.45,9.37,37.83,1013.64,2025.99,3335.06,3240.09,3507.97,499.83,490.59,27.74,0000 0000 0000 0000 000000
2014-08-29 11:48:16,-0.01,0.25,0.00,25.59,30.14,32.43,9.46,37.98,1013.64,2025.99,3335.15,3240.26,3507.99,499.85,490.87,27.78,0000 0000 0000 0000 000000
2014-08-29 11:53:17,-0.00,0.25,0.00,25.57,30.12,32.42,9.41,37.99,1013.62,2025.99,3335.23,3240.43,3507.99,499.56,490.65,27.82,0000 0000 0000 0000 000000
2014-08-29 11:58:18,-0.01,0.25,0.00,25.55,30.11,32.41,9.45,38.00,1013.64,2025.99,3335.67,3240.80,3507.99,499.80,490.88,27.86,0000 0000 0000 0000 000000
2014-08-29 12:03:19,-0.01,0.25,0.00,25.53,30.10,32.38,9.45,38.04,1013.69,2025.99,3335.87,3240.91,3508.00,500.04,491.09,27.91,0000 0000 0000 0000 000000
2014-08-29 12:08:20,0.00,0.25,0.00,25.53,30.08,32.36,9.40,37.92,1013.70,2026.00,3335.93,3240.96,3508.00,499.59,490.79,27.95,0000 0000 0000 0000 000000
2014-08-29 12:13:22,0.00,0.25,0.00,25.52,30.07,32.35,9.43,38.06,1013.70,2026.00,3335.97,3240.99,3508.01,500.10,491.19,27.99,0000 0000 0000 0000 000000
2014-08-29 12:18:23,-0.00,0.25,0.00,25.50,30.05,32.35,9.52,38.12,1013.69,2026.01,3335.99,3240.99,3508.08,499.94,490.96,28.03,0000 0000 0000 0000 000000
2014-08-29 12:23:24,-0.00,0.25,0.00,25.47,30.05,32.34,9.42,37.98,1013.69,2026.03,3335.99,3240.99,3508.16,500.13,491.15,28.07,0000 0000 0000 0000 000000
2014-08-29 12:28:25,0.00,0.25,0.00,25.46,30.02,32.32,9.46,37.93,1013.68,2026.10,3335.99,3240.99,3508.61,500.29,491.51,28.12,0000 0000 0000 0000 000000
2014-08-29 12:33:26,0.01,0.25,0.00,25.45,30.01,32.30,9.42,38.12,1013.68,2026.21,3335.99,3241.02,3508.88,499.88,490.96,28.16,0000 0000 0000 0000 000000
2014-08-29 12:38:27,0.04,0.25,0.00,25.44,30.00,32.30,9.38,38.30,1013.68,2026.64,3336.03,3241.18,3508.99,499.75,491.20,28.20,0000 0000 0000 0000 000000
2014-08-29 12:43:28,0.01,0.25,0.00,25.43,29.99,32.28,9.50,38.52,1013.68,2026.82,3336.03,3241.32,3508.99,500.02,491.32,28.24,0000 0000 0000 0000 000000
2014-08-29 12:48:29,-0.01,0.25,0.00,25.41,29.97,32.28,9.48,38.21,1013.45,2026.88,3336.15,3241.62,3508.99,499.91,491.21,28.28,0000 0000 0000 0000 000000
2014-08-29 12:53:31,-0.00,0.25,0.00,25.37,29.95,32.25,9.40,38.40,1013.21,2026.96,3336.31,3241.89,3508.99,500.09,491.27,28.32,0000 0000 0000 0000 000000